FW0765 Weather Reports


Display with metric or nautical units.
time (UTC)temp
F
wind
direction
speed
MPH
gust
MPH
rain 1hr
in
rain 24hr
in
rain mn
in
humidity
%
barometer
mb
20260904103006 79 198 5.0 13.0 0.00 0.05 0.00 71 1008.3
20260904101502 79 208 5.0 14.0 0.00 0.05 0.00 69 1008.3
20260904100002 79 205 8.0 15.0 0.00 0.05 0.00 68 1008.1
20260904094600 80 215 7.0 12.0 0.00 0.05 0.00 66 1008.1
20260904093103 80 187 7.0 13.0 0.00 0.05 0.00 65 1008.0
20260904091559 81 192 9.0 14.0 0.00 0.05 0.00 65 1008.1
20260904090052 81 193 9.0 14.0 0.00 0.05 0.00 65 1007.9
20260904084551 81 218 8.0 17.0 0.00 0.05 0.00 64 1008.0
20260904083048 81 199 7.0 13.0 0.00 0.05 0.00 63 1008.0
20260904081547 82 180 6.0 13.0 0.00 0.05 0.00 63 1008.0
20260904080047 82 188 7.0 14.0 0.00 0.05 0.00 62 1008.0
20260904074559 82 161 8.0 15.0 0.00 0.05 0.00 61 1007.8
20260904073044 83 200 6.0 14.0 0.00 0.05 0.00 60 1008.1
20260904071600 83 194 6.0 11.0 0.00 0.05 0.00 60 1008.1
20260904070039 83 202 6.0 12.0 0.00 0.05 0.00 58 1008.3
20260904064538 84 163 7.0 14.0 0.00 0.05 0.00 57 1008.2
20260904063044 84 223 5.0 13.0 0.00 0.05 0.00 55 1008.3
20260904061530 84 198 5.0 14.0 0.00 0.05 0.00 54 1008.1
20260904060029 85 185 6.0 13.0 0.00 0.05 0.00 53 1008.2
20260904054533 86 182 7.0 13.0 0.00 0.05 0.00 51 1008.0
20260904053022 86 184 5.0 11.0 0.00 0.05 0.00 51 1007.9
20260904051520 86 190 4.0 9.0 0.00 0.05 0.00 51 1007.7
20260904050120 87 206 6.0 11.0 0.00 0.05 0.00 50 1007.8
20260904044516 87 200 5.0 13.0 0.00 0.05 0.05 49 1007.7
20260904043015 87 169 7.0 12.0 0.00 0.05 0.05 48 1007.9
20260904041523 88 171 5.0 12.0 0.00 0.05 0.05 49 1007.9
20260904040014 88 190 5.0 14.0 0.00 0.05 0.05 49 1007.8
20260904034513 88 198 4.0 11.0 0.00 0.05 0.05 49 1007.8
20260904033012 88 171 5.0 10.0 0.00 0.05 0.05 48 1007.7
20260904031513 89 211 6.0 12.0 0.00 0.05 0.05 48 1007.6
20260904030012 89 169 7.0 15.0 0.00 0.05 0.05 47 1007.3
20260904024514 89 177 4.0 10.0 0.00 0.05 0.05 48 1006.9
20260904023012 90 168 5.0 15.0 0.00 0.05 0.05 49 1006.8
20260904021527 89 155 7.0 14.0 0.05 0.05 0.05 50 1006.7
20260904020010 89 158 5.0 15.0 0.05 0.05 0.05 51 1006.5
20260904014509 87 188 6.0 15.0 0.05 0.05 0.05 54 1006.4
20260904013011 88 187 8.0 19.0 0.04 0.04 0.04 54 1006.3
20260904011508 97 162 6.0 14.0 0.00 0.00 0.00 35 1005.8
20260904010007 98 148 2.0 8.0 0.00 0.00 0.00 32 1005.7
20260904004504 99 134 2.0 7.0 0.00 0.00 0.00 32 1005.5
20260904003006 99 94 3.0 8.0 0.00 0.00 0.00 31 1005.6
20260904001504 99 100 3.0 8.0 0.00 0.00 0.00 31 1005.5
20260904000004 100 86 2.0 6.0 0.00 0.00 0.00 30 1005.4
20260903234505 101 107 4.0 9.0 0.00 0.00 0.00 29 1005.3
20260903233001 102 163 2.0 9.0 0.00 0.00 0.00 29 1005.1
20260903231501 101 121 2.0 4.0 0.00 0.00 0.00 29 1005.3
20260903230103 100 105 2.0 4.0 0.00 0.00 0.00 31 1005.3
20260903224559 100 150 0.0 3.0 0.00 0.00 0.00 31 1005.2
20260903223058 100 150 1.0 4.0 0.00 0.00 0.00 29 1005.4
20260903221559 101 133 3.0 8.0 0.00 0.00 0.00 29 1005.2
20260903220056 100 100 3.0 8.0 0.00 0.00 0.00 30 1005.5
20260903220004 100 112 3.0 9.0 0.00 0.00 0.00 30 1005.5
20260903214603 101 89 4.0 9.0 0.00 0.00 0.00 29 1005.4
20260903213055 102 105 1.0 4.0 0.00 0.00 0.00 28 1005.6
20260903211553 102 160 2.0 6.0 0.00 0.00 0.00 29 1005.9
20260903210053 102 258 5.0 12.0 0.00 0.00 0.00 29 1006.0
20260903204552 102 110 0.0 12.0 0.00 0.00 0.00 30 1006.2
20260903203049 101 30 4.0 7.0 0.00 0.00 0.00 30 1006.5
20260903201543 100 67 4.0 9.0 0.00 0.00 0.00 31 1006.6
20260903200047 100 156 5.0 11.0 0.00 0.00 0.00 31 1007.0
20260903194543 101 63 1.0 6.0 0.00 0.00 0.00 30 1007.1
20260903193038 101 130 5.0 10.0 0.00 0.00 0.00 30 1007.4
20260903191538 100 164 4.0 10.0 0.00 0.00 0.00 31 1007.7
20260903190034 100 171 4.0 12.0 0.00 0.00 0.00 32 1008.0
20260903184531 100 5 2.0 8.0 0.00 0.00 0.00 30 1008.2
20260903183029 100 229 2.0 10.0 0.00 0.00 0.00 31 1008.5
20260903181526 101 229 1.0 5.0 0.00 0.00 0.00 31 1008.8
20260903180038 99 58 3.0 9.0 0.00 0.00 0.00 32 1009.1
20260903174521 99 205 3.0 10.0 0.00 0.00 0.00 34 1009.2
20260903173018 98 229 7.0 12.0 0.00 0.00 0.00 36 1009.3
20260903171515 97 215 3.0 12.0 0.00 0.00 0.00 40 1009.6
20260903170016 96 212 4.0 12.0 0.00 0.00 0.00 42 1009.7
20260903164509 95 186 5.0 11.0 0.00 0.00 0.00 45 1009.8
20260903163004 94 238 7.0 16.0 0.00 0.00 0.00 46 1009.9
20260903161503 93 209 7.0 11.0 0.00 0.00 0.00 48 1009.8
20260903160108 92 190 4.0 12.0 0.00 0.00 0.00 51 1009.9
20260903154553 91 256 7.0 12.0 0.00 0.00 0.00 52 1009.9
20260903153049 89 234 5.0 10.0 0.00 0.00 0.00 56 1009.9
20260903151550 88 255 5.0 14.0 0.00 0.00 0.00 58 1009.8
20260903150044 86 194 5.0 11.0 0.00 0.00 0.00 63 1010.0
20260903144540 84 209 6.0 14.0 0.00 0.00 0.00 65 1010.0
20260903143040 83 224 6.0 10.0 0.00 0.00 0.00 68 1010.1
20260903141537 82 202 7.0 10.0 0.00 0.00 0.00 69 1010.2
20260903140038 81 177 7.0 12.0 0.00 0.00 0.00 71 1010.3
20260903134535 80 206 5.0 11.0 0.00 0.00 0.00 71 1010.3
20260903133034 80 211 4.0 8.0 0.00 0.00 0.00 73 1010.4
20260903131536 78 198 3.0 8.0 0.00 0.00 0.00 75 1010.3
20260903130036 77 180 2.0 6.0 0.00 0.00 0.00 75 1010.1
20260903124529 77 169 3.0 7.0 0.00 0.00 0.00 75 1010.0
20260903123030 76 190 4.0 9.0 0.00 0.00 0.00 74 1009.8
20260903121535 77 221 3.0 8.0 0.00 0.00 0.00 73 1009.8
20260903120029 77 223 3.0 8.0 0.00 0.00 0.00 72 1009.7
20260903114525 77 213 3.0 7.0 0.00 0.00 0.00 71 1009.6
20260903113032 77 189 3.0 8.0 0.00 0.00 0.00 69 1009.7
20260903111521 77 183 4.0 11.0 0.00 0.00 0.00 67 1009.6
20260903110044 77 173 4.0 7.0 0.00 0.00 0.00 65 1009.6
20260903104520 78 214 4.0 9.0 0.00 0.00 0.00 64 1009.5